SCP
0 0 0 0 0 0 0 0 0 0 -0 -0 -0 -0 -0 -0 0 0 0 0 0 0 0 0 0 0 -0 -0 -0 -0 0 0 0 0 0 0 0 0 0 0 0 0 0 0
0 0 0 0 0 0 0 0 0 0 0 -0 0 0 -0 0 0 0 0 0 0 0 0 0 0 0 0 0 0 0 0 0 0 0 0 0 0 0 0 0 0 0 0 0
0 0 0 0 0 0 0 0 0 0 0 0 0 0 0 0 0 0 0 0 0 0 0 0 0 0 0 0 0 0 0 0 0 0 0 0 0 0 0 0 0 0 0 0
0 0 0 0 0 0 0 0 0 0 0 0 0 0 -0 0 0 0 0 0 0 0 0 0 0 0 0 0 0 0 0 0 0 0 0 0 0 0 0 0 0 0 0 0
0 0 0 0 0 0 0 0 0 0 0 0 0 0 0 0 0 0 0 0 0 0 0 0 0 0 0 0 0 0 0 0 0 0 0 0 0 0 0 0 0 0 0 0
0 0 0 0 0 0 0 0 0 0 0 0 0 0 0 0 0 0 0 0 0 0 0 0 0 0 0 0 0 0 0 0 0 0 0 0 0 0 0 0 0 0 0 0
0 0 0 0 0 0 0 0 0 0 0 0 0 0 0 0 0 0 0 0 0 0 0 0 0 0 0 0 0 0 0 0 0 0 0 0 0 0 0 0 0 0 0 0
0 0 -0 0 0 0 0 0 0 0 0 0 0 0 0 0 0 0 0 0 0 0 0 0 0 0 0 0 0 0 0 0 0 0 0 0 0 0 0 0 0 0 0 0
0 0 0 0 0 0 0 0 0 0 0 0 0 0 0 0 0 0 0 0 0 0 0 0 0 0 0 0 0 0 0 0 0 0 0 0 0 0 0 0 0 0 0 0
0 0 0 0 0 0 0 0 0 0 0 0 0 0 0 0 0 0 0 0 0 0 0 0 0 0 0 0 0 0 0 0 0 0 0 0 0 0 0 0 0 0 0 0
-0 -0 -0 -0 -0 0 0 0 0 0 0 0 0 0 0 0 0 0 0 0 0 0 0 0 0 0 0 0 0 0 0 0 0 0 0 0 0 0 0 0 0 0 0 0
-0 -0 -0 -0 -0 0 0 0 0 0 0 0 0 0 0 0 0 0 0 0 0 0 0 0 0 0 0 0 0 0 0 0 0 0 0 0 0 0 0 0 0 0 0 0
-0 -0 -0 -0 -0 0 0 0 0 0 0 0 0 0 0 0 0 0 0 0 0 0 0 0 0 0 0 0 0 0 0 0 0 0 0 0 0 0 0 0 0 0 0 0
0 0 0 0 0 0 0 0 0 0 0 0 0 0 0 0 0 0 0 0 0 0 0 0 0 0 0 0 0 0 0 0 0 0 0 0 0 0 0 0 0 0 0 0
0 0 0 0 0 0 0 0 0 0 0 0 0 0 0 0 0 0 0 0 0 0 0 0 0 0 0 0 0 0 0 0 0 0 0 0 0 0 0 0 0 0 0 0
0 0 0 -0 0 0 0 0 0 0 0 0 0 0 0 0 0 0 0 0 0 0 0 0 0 0 0 0 0 0 0 0 0 0 0 0 0 0 0 0 0 0 0 0
0 0 0 -0 0 0 0 0 0 0 0 -0 0 0 0 0 0 0 0 0 0 0 0 0 0 0 0 0 0 0 0 0 0 0 0 0 0 0 0 0 0 0 0 0
0 0 0 -0 0 0 0 0 0 0 -0 -0 0 0 0 0 0 0 0 0 0 0 0 0 0 0 0 0 0 0 0 0 0 0 0 0 0 0 0 0 0 0 0 0
0 0 0 0 0 0 0 0 0 0 -0 -0 0 0 0 0 0 0 0 0 0 0 0 0 0 0 0 0 0 0 0 0 0 0 0 0 0 0 0 0 0 0 0 0
0 0 0 0 0 0 0 0 0 0 0 0 0 0 0 0 0 0 0 0 0 0 0 0 0 0 0 0 0 0 0 0 0 0 0 0 0 0 0 0 0 0 0 0
0 0 0 0 0 0 0 0 0 0 0 0 0 0 0 0 0 0 0 0 0 0 0 0 0 0 0 0 0 0 0 0 0 0 0 0 0 0 0 0 0 0 0 0
0 0 0 0 0 0 0 0 0 0 0 0 0 0 0 0 0 0 0 0 0 0 0 0 0 0 0 0 0 0 0 0 0 0 0 0 0 0 0 0 0 0 0 0
0 0 0 0 0 0 0 0 0 0 0 0 0 0 0 0 0 0 0 0 0 0 0 0 0 0 0 0 0 0 0 0 0 0 0 0 0 0 0 0 0 0 0 0
0 0 0 0 0 0 0 0 0 0 0 0 0 0 0 0 0 0 0 0 0 0 0 0 0 0 0 0 0 0 0 0 0 0 0 0 0 0 0 0 0 0 0 0
0 0 0 0 0 0 0 0 0 0 0 0 0 0 0 0 0 0 0 0 0 0 0 0 0 0 0 0 0 0 0 0 0 0 0 0 0 0 0 0 0 0 0 0
0 0 0 0 0 0 -0 0 0 0 0 0 0 0 0 0 0 0 0 0 0 0 0 0 0 0 0 0 0 0 0 0 0 0 0 0 0 0 0 0 0 0 0 0
0 0 0 0 0 0 -0 -0 0 0 0 0 0 0 0 0 0 0 0 0 0 0 0 0 0 0 0 0 0 0 0 0 0 0 0 0 0 0 0 0 0 0 0 0
Wind_Speed
6 6 4 5 7 5 6 7 7 8 9 12 8 6 5 4 3 3 3 4 4 4 3 3 3 3 2 2 2 1 1 1 0 0 1 1 1 2 2 1 1 2 1 1
4 3 4 6 8 7 8 7 8 9 11 9 7 4 4 4 3 4 4 4 4 4 3 3 3 3 2 2 1 1 1 1 1 1 2 2 1 2 2 2 2 2 2 1
4 5 4 7 7 7 6 6 6 8 10 6 5 5 4 3 4 4 4 4 4 5 3 3 3 2 2 2 1 1 1 1 1 1 1 1 1 2 1 1 2 2 1 1
1 4 5 8 1 4 5 7 7 7 7 5 6 5 4 3 3 4 4 5 5 4 4 3 2 2 2 1 1 1 1 0 1 1 1 1 1 1 1 1 1 1 1 1
1 2 8 8 3 3 3 7 6 7 7 6 5 4 4 3 2 4 5 5 4 3 3 2 2 1 0 1 1 0 0 0 0 1 1 1 1 1 1 1 1 1 1 1
3 3 7 7 2 1 2 6 4 4 6 5 3 4 6 4 4 4 4 3 3 2 2 2 2 1 0 0 0 1 1 1 1 1 1 1 0 0 1 1 1 1 1 1
5 5 10 6 2 3 3 7 3 3 5 4 4 6 5 4 4 4 4 3 3 2 2 2 1 1 1 1 1 2 1 1 1 1 1 1 1 0 1 1 1 1 1 1
5 5 11 4 5 6 8 3 2 4 4 4 5 5 4 4 4 4 4 4 3 2 3 2 0 1 1 1 2 0 1 1 1 1 1 1 1 1 1 1 2 1 1 1
10 10 5 5 7 5 3 4 4 3 4 4 4 4 4 4 4 3 3 4 3 2 2 2 0 1 1 2 1 1 1 1 1 1 1 1 1 1 1 1 1 1 1 0
6 9 7 6 5 5 4 5 5 4 4 3 4 4 4 3 4 3 3 3 3 2 2 2 1 0 1 1 1 2 1 1 1 1 1 1 1 1 1 1 1 1 1 0
7 7 5 6 6 6 5 4 3 3 3 3 3 3 3 3 3 3 3 3 2 2 2 2 2 1 1 1 1 1 1 1 1 1 1 1 1 1 1 2 2 2 1 1
8 7 5 6 5 4 4 5 4 3 3 2 2 3 3 3 3 3 3 3 3 2 2 2 1 1 1 1 1 2 1 1 1 1 1 1 1 1 2 0 0 1 1 1
6 4 5 5 4 2 3 4 4 3 3 3 2 2 2 2 2 2 3 3 3 2 2 2 1 1 1 1 0 1 1 1 1 1 1 1 0 0 1 2 2 2 2 1
5 3 4 4 4 2 2 3 2 1 2 2 2 1 1 2 2 2 3 3 3 2 2 2 1 2 1 0 0 1 1 1 1 1 1 1 1 0 0 0 1 1 2 2
5 5 5 3 2 1 1 1 1 2 2 2 1 1 1 2 2 3 3 3 2 2 2 1 1 2 1 0 0 1 1 1 1 1 1 1 1 1 1 1 0 0 1 1
3 2 2 2 3 2 1 2 2 3 2 2 2 2 2 2 2 3 3 2 1 2 2 2 2 2 1 0 0 0 1 1 1 1 1 1 1 1 1 0 0 0 0 0
3 3 3 4 4 4 3 4 4 3 3 2 3 2 1 1 2 2 2 2 1 2 2 2 2 2 1 0 1 1 1 1 1 1 1 1 1 1 1 1 1 1 1 1
5 6 5 5 4 4 3 3 3 3 3 3 2 1 1 1 2 3 2 2 2 2 2 2 2 1 0 0 0 1 1 1 1 1 1 1 1 1 1 1 1 1 1 1
3 4 4 4 4 3 3 3 3 2 2 2 1 2 2 2 2 2 1 1 2 2 2 2 2 1 1 0 0 1 1 0 0 0 1 1 1 1 1 1 1 1 1 1
1 1 2 2 2 2 2 2 2 2 2 2 1 1 1 2 1 1 1 2 2 2 2 2 1 1 1 0 0 0 1 1 1 0 1 1 1 1 1 1 1 1 1 1
2 1 1 1 1 1 2 2 2 2 2 2 2 2 2 2 1 1 1 2 2 2 2 2 1 1 1 0 0 0 1 1 1 1 1 1 1 1 1 1 1 1 1 1
2 2 2 2 1 1 1 1 2 2 2 1 2 2 1 1 1 1 2 2 2 3 1 0 0 1 0 0 0 0 1 1 1 1 1 1 1 1 1 1 1 1 1 1
2 2 2 2 2 2 1 1 1 2 2 2 2 2 2 2 1 1 2 1 1 2 1 0 1 1 1 1 0 0 0 0 0 1 1 1 1 1 1 1 1 1 1 1
2 2 2 1 1 1 1 2 1 1 2 2 2 2 2 1 1 1 1 2 2 2 1 1 1 1 2 1 1 0 0 0 0 0 1 1 1 1 1 1 1 1 1 1
3 2 2 2 2 2 3 2 1 1 1 1 1 1 1 2 2 1 0 1 1 1 1 1 2 2 2 1 1 0 0 0 0 0 0 0 0 1 1 1 1 1 1 1
3 3 3 3 3 2 2 2 2 2 2 1 1 1 1 0 1 0 0 0 0 1 1 1 1 2 1 1 1 1 1 1 1 1 0 0 0 0 0 1 1 1 1 1
2 1 1 1 2 2 2 2 3 3 2 2 2 1 1 1 1 1 1 1 0 0 1 1 1 1 1 1 1 1 1 1 1 1 1 0 0 1 1 1 1 1 0 1
Wind_Direction
260 264 246 245 256 232 212 216 224 256 263 277 286 287 291 301 311 325 328 331 329 328 331 335 338 340 346 351 358 22 68 83 59 28 49 52 47 44 34 54 79 99 94 94
293 284 266 267 261 238 232 234 243 266 277 279 293 298 297 299 306 309 309 312 315 318 323 320 314 318 333 338 353 37 59 54 43 46 49 51 50 51 54 59 66 84 90 102
280 316 342 280 245 208 216 221 212 237 259 296 313 302 284 289 296 292 291 296 300 298 288 286 291 305 311 310 341 35 48 43 55 61 55 50 50 50 54 68 69 69 69 79
289 10 256 248 244 197 219 243 231 249 269 275 273 281 277 269 269 282 292 295 291 290 292 295 296 308 317 337 4 35 42 45 62 70 58 45 51 46 35 66 75 74 69 64
159 257 277 289 263 188 211 270 240 242 268 284 299 320 306 286 262 259 271 277 280 280 277 288 289 285 330 358 14 40 40 161 115 100 89 65 48 25 20 61 53 53 56 57
162 208 246 255 248 178 107 284 256 232 263 282 322 303 287 307 301 290 295 301 301 298 298 293 285 253 145 259 317 279 260 214 155 129 144 168 187 356 28 51 61 58 42 43
198 227 261 256 229 130 178 255 274 255 263 264 243 249 279 307 308 302 308 314 319 319 306 285 275 152 164 221 261 267 253 162 145 160 176 176 150 119 76 70 80 74 63 45
179 212 253 219 150 187 222 255 264 270 270 264 265 280 297 308 313 319 326 328 332 334 320 318 66 128 168 242 266 265 135 139 155 168 176 153 142 132 102 108 102 87 76 47
195 216 240 196 204 223 214 235 254 256 271 269 277 286 297 304 307 311 317 318 326 329 329 338 20 153 198 254 245 159 146 167 178 168 167 166 149 139 120 126 132 144 138 105
248 259 254 251 250 250 233 235 252 255 255 256 263 277 294 304 310 315 316 314 323 335 330 325 329 283 233 249 165 152 160 166 156 154 151 127 133 143 151 165 166 174 167 172
252 270 290 267 242 245 249 251 261 264 248 240 247 275 286 296 302 307 312 315 321 314 307 306 323 318 278 218 156 160 167 164 156 153 140 128 134 167 197 202 190 186 202 204
231 232 222 255 256 234 235 248 251 253 260 263 236 251 277 286 292 300 307 314 323 326 323 316 323 317 304 277 181 161 155 144 140 139 133 114 85 14 359 321 260 249 256 248
230 239 234 263 269 233 229 246 251 239 229 251 263 253 263 285 292 305 313 317 311 311 313 311 311 309 305 286 193 172 175 179 163 154 151 130 110 83 10 4 7 358 351 341
243 243 267 261 254 256 250 251 246 237 242 233 244 272 284 295 302 306 299 296 298 308 308 307 309 303 303 308 135 165 165 178 169 168 165 162 178 198 180 184 341 347 358 13
245 226 236 255 260 265 267 242 239 271 272 279 265 260 268 280 287 291 296 302 318 330 321 318 307 303 322 72 137 188 179 177 171 173 176 180 183 186 179 177 193 330 19 24
243 235 227 233 244 249 247 229 231 250 255 255 263 266 268 268 282 295 304 308 312 306 308 311 299 297 310 145 177 217 202 203 208 181 178 172 169 159 154 164 180 221 220 235
189 224 228 239 243 243 236 235 230 234 238 240 247 259 276 295 308 311 312 311 291 287 292 289 292 309 310 199 190 197 176 178 195 185 182 186 178 168 180 203 213 240 255 252
211 215 215 218 226 235 244 240 232 229 230 239 246 243 247 250 263 283 298 318 332 327 311 300 303 314 318 189 181 176 164 177 180 182 179 188 182 179 187 204 219 242 264 276
219 221 224 222 217 214 224 232 232 230 229 213 211 236 250 259 261 275 295 311 307 306 313 317 326 3 353 286 332 151 149 159 178 173 177 194 193 183 197 210 224 234 240 260
222 225 219 223 214 207 218 227 216 222 224 198 197 214 255 274 274 276 277 277 274 270 281 299 319 330 315 289 323 143 147 166 178 180 180 183 190 201 211 217 225 230 230 235
214 218 210 210 232 232 225 216 205 218 228 202 194 209 231 258 262 246 250 293 304 298 287 305 341 303 282 272 337 120 149 168 186 201 204 207 208 212 221 223 229 236 228 228
208 208 217 218 215 252 262 224 207 208 210 206 204 201 203 236 257 271 262 261 281 307 325 306 285 273 293 28 108 143 163 180 192 200 204 215 222 222 223 231 234 235 228 219
211 211 214 220 222 238 263 227 209 199 202 207 208 207 207 216 217 221 275 289 287 315 344 290 284 308 19 45 94 118 155 186 201 220 231 231 228 225 230 238 237 231 222 220
211 213 217 216 181 180 230 249 231 209 203 215 218 212 199 200 251 251 248 286 318 337 346 321 349 12 25 43 64 60 5 263 241 267 269 257 224 217 230 242 247 242 225 220
205 205 199 186 199 219 221 214 198 195 188 204 223 221 209 198 204 235 236 248 303 14 13 354 10 15 29 49 44 24 1 325 262 268 267 270 257 243 244 248 250 247 234 223
201 207 212 215 215 209 194 185 194 200 193 199 215 210 196 172 168 177 156 138 58 36 34 16 13 20 31 35 25 11 355 340 344 339 297 282 281 275 264 260 268 250 235 220
195 201 202 226 229 206 191 191 198 204 199 194 200 199 178 157 147 143 127 113 87 41 41 37 28 26 31 27 18 4 354 345 339 334 335 329 309 287 278 268 270 264 227 199